星链-32306 (STARLINK-32306)

导读

STARLINK-32306是美国SpaceX星链星座的卫星,于2024年10月15日发射升空,属于星链互联网卫星组网的一部分。星链项目旨在打造全球卫星互联网系统,为全球偏远地区等提供高速低延迟网络服务,该卫星将参与星座运行,进一步扩充星链的全球覆盖与服务能力。

基本信息
目录编号:
61520
目录名称:
STARLINK-32306
国际标识:
2024-183M
轨道中心:
EARTH
卫星名称:
星链-32306
卫星全名:
星链-32306 (STARLINK-32306)
卫星状态:
在轨 (已飞行689 天)
发射日期:
2024-10-15 UTC
国别 :
美国 (US)
星等 :
--
轨道信息
数据来源 国际轨道数据 AOE轨道数据
星历时间 2026-09-03T18:24:35+0800
1天前
查看轨道信息
2026-09-01T02:00:00+0800
4天前
查看轨道信息
半长轴 6848.852km 6848.883km
偏心率 0.0001182 0.0000877
轨道倾角 53.163° 53.162°
近地点辐角 98.243° 77.370°
升交点赤经 35.577° 48.075°
平近点角 261.871° 235.951°
近地点 469.905km 470.145km
远地点 471.525km 471.347km
周期 94.013分钟 94.013分钟
每日圈数 15.317087 15.316981
详细信息
固有亮度:
5
最大亮度:
2.5
卫星平台:
Starlink V1.0
覆盖范围:
全球
运营商:
太空探索技术公司
运营商所在国:
美国
制造商(研发单位):
太空探索技术公司
制造商所在国:
美国
使用方式:
暂无
卫星简介
Starlink 计划是 SpaceX 推出的全球卫星互联网项目,通过发射低轨道卫星,为全球尤其是偏远地区提供高速、低延迟的互联网服务。自 2019 年起,Starlink 已部署数千颗卫星,旨在缩小全球数字鸿沟,推动互联网普及。该项目还为军事、航空等行业提供通信支持,带来广泛经济效益。
2D轨道图
3D轨道图
轨道高度分析图
轨道倾角分析图
轨道综合分析图
查看轨道综合分析图
交会数据列表
事件ID 空间交会对象 最接近时刻(TCA) 交会距离 交会风险概率(CRP) 交会风险指数(CRI) 操作
CDM_260907-063106-152006-223421
2026-09-07T
06:31:27+0000
0.615 km
远距离
8.04935E-5 中风险 0.73
CDM_260831-022306-152006-488021
OBJECT E (64880)
2026-08-31T
02:23:29+0000
2.020 km
极远距离
2.762439E-6 低风险 0.44
CDM_260905-015305-213706-152021
2026-09-05T
01:53:17+0000
1.681 km
极远距离
2.25819E-6 低风险 0.42
CDM_260829-192405-850206-152024
OBJECT A (58502)
2026-08-29T
19:24:15+0000
2.415 km
极远距离
1.849938E-6 低风险 0.4
CDM_260906-170506-152006-537921
2026-09-06T
17:05:24+0000
2.458 km
极远距离
1.566311E-6 低风险 0.39
CDM_260831-031006-152006-488021
OBJECT E (64880)
2026-08-31T
03:10:30+0000
2.893 km
极远距离
1.390251E-6 低风险 0.38
CDM_260907-045706-152006-223421
2026-09-07T
04:57:30+0000
2.346 km
极远距离
1.337346E-6 低风险 0.38
CDM_260906-091306-152006-579521
2026-09-06T
09:13:59+0000
2.767 km
极远距离
1.244608E-6 低风险 0.37
CDM_260906-144406-152006-537921
2026-09-06T
14:44:22+0000
2.884 km
极远距离
1.219665E-6 低风险 0.37
CDM_260905-183006-152006-190122
OBJECT H (61901)
2026-09-05T
18:30:35+0000
2.815 km
极远距离
1.073298E-6 低风险 0.36